Location: Wapato
(46.4478°N, 120.4212°W)
Time: 14:00:14
(UTC+00:00)

Explorer 7 - Pass Details

Date: 15 May 2026
Orbit: 426 x 534 km, 50.2° (Epoch: 8 June)

Event Time Altitude Azimuth Distance (km) Brightness Sun altitude
Rises 12:38:18 0° 216° (SW) 2,419 9.5 0.7°
Reaches altitude 10° 12:40:32 10° 206° (SSW) 1,569 8.7 1.1°
Maximum altitude 12:43:41 30° 143° (SE) 838 7.9 1.6°
Drops below altitude 10° 12:46:57 10° 80° (E) 1,632 11.0 2.1°
Sets 12:49:18 0° 70° (ENE) 2,535 13.2 2.4°
